SCP
0 -0 0 0 -0 -0 -0 -0 -0 0 0 -0 -0 -0 -0 -0 0 0 -0 0 0 0 -0 -0 0 0 0 0 0 0 0 0 -0 -0 -0 -0 -0 -0 0 0 -0 -0 -0
0 0 0 0 0 0 0 0 -0 -0 -0 -0 -0 -0 -0 0 -0 0 0 0 0 0 -0 0 -0 -0 0 0 0 0 0 0 -0 0 -0 -0 -0 -0 -0 -0 -0 -0 -0
0 0 -0 0 -0 -0 0 0 0 0 -0 -0 -0 -0 -0 0 0 0 0 0 -0 -0 -0 0 -0 -0 0 0 0 0 -0 -0 0 0 -0 -0 -0 -0 -0 -0 -0 -0 -0
-0 -0 -0 0 -0 0 0 0 0 0 -0 -0 -0 -0 -0 -0 -0 -0 -0 -0 -0 -0 0 0 0 -0 -0 0 0 -0 -0 -0 -0 0 0 0 -0 -0 0 -0 0 0 -0
0 0 0 0 0 0 0 0 0 0 0 0 0 -0 -0 -0 -0 -0 -0 -0 -0 -0 0 0 -0 -0 0 0 0 -0 -0 0 0 0 0 0 0 0 0 0 -0 -0 -0
0 0 0 0 0 0 0 0 0 0 0 0 0 -0 -0 -0 -0 -0 -0 -0 -0 -0 -0 0 0 0 0 0 -0 -0 0 0 0 0 0 0 -0 0 -0 -0 0 0 -0
0 -0 -0 0 0 0 0 0 0 0 0 0 0 0 0 -0 -0 -0 -0 -0 -0 0 0 0 0 0 -0 -0 0 0 0 0 0 0 0 0 0 0 0 -0 -0 -0 0
-0 0 -0 0 -0 0 0 0 0 0 0 0 -0 0 0 0 0 0 -0 0 -0 0 0 0 0 0 0 0 -0 0 0 0 0 0 0 0 0 0 0 0 0 0 0
-0 -0 0 -0 0 -0 0 0 0 0 -0 -0 0 0 0 0 0 0 0 0 0 0 0 0 0 0 0 0 0 0 0 0 0 0 0 0 0 0 0 0 0 0 0
0 0 0 -0 0 0 0 -0 0 -0 0 0 0 0 0 0 0 0 0 0 0 0 0 0 0 0 0 0 0 0 0 0 0 0 0 0 0 0 0 0 0 0 0
0 0 -0 -0 0 0 0 0 0 -0 -0 -0 -0 0 0 0 0 0 0 0 0 0 0 0 0 0 0 0 0 0 0 0 0 0 0 0 0 0 0 0 0 0 0
-0 -0 0 0 0 0 0 0 0 0 0 0 0 0 0 0 0 0 0 0 0 0 0 0 0 0 0 0 0 1 0 0 0 0 0 0 0 0 0 0 0 0 0
-0 -0 -0 0 0 0 0 0 0 0 0 0 0 0 0 0 0 0 0 0 0 0 0 0 0 0 0 0 0 0 0 0 0 0 0 0 1 0 1 1 1 1 1
-0 -0 0 0 0 0 0 0 0 0 0 0 0 0 0 0 0 0 0 0 0 0 0 0 0 0 0 0 0 0 0 0 0 0 0 0 0 1 0 1 1 1 1
0 0 0 0 0 0 0 0 0 0 0 0 0 0 0 0 0 0 0 0 0 0 0 0 0 0 0 0 0 0 0 0 0 0 0 0 1 0 0 1 1 1 1
0 0 0 0 0 0 0 0 0 0 0 0 0 0 0 0 0 0 0 0 0 0 0 0 0 0 0 0 0 0 0 0 0 0 0 0 0 0 0 0 0 0 0
0 0 0 0 0 0 0 0 0 0 0 0 0 0 0 0 0 1 0 0 0 0 0 0 0 0 0 0 0 0 0 0 0 0 0 0 0 0 0 0 0 0 0
0 0 0 -0 -0 0 0 0 0 0 0 0 0 0 0 0 0 0 0 0 1 0 0 0 0 0 0 0 0 0 0 0 0 0 0 0 0 0 0 0 0 0 0
0 0 0 -0 -0 0 0 0 0 0 0 0 0 0 0 0 0 0 0 0 1 0 0 0 0 0 0 0 0 0 0 0 0 0 0 0 0 0 0 0 0 1 1
0 0 -0 0 -0 0 0 0 0 0 0 0 0 0 0 0 0 1 0 1 1 0 0 0 0 0 0 0 0 0 0 0 0 0 0 0 0 0 0 0 0 1 1
0 0 -0 0 0 0 0 0 0 0 0 0 0 0 0 0 0 0 0 1 1 1 1 0 0 0 0 0 0 0 0 0 -0 0 0 0 0 0 0 0 0 0 0
-0 0 0 0 0 0 0 0 0 0 0 0 0 0 0 0 0 0 0 0 1 0 1 0 1 0 0 0 0 0 0 -0 -0 0 0 0 0 0 0 0 0 -0 0
-0 -0 0 -0 0 0 0 0 0 0 0 0 -0 -0 -0 0 0 0 0 0 1 1 0 1 1 1 0 0 0 0 0 0 0 -0 0 0 0 0 0 0 0 0 0
-0 -0 0 0 -0 0 0 0 0 0 0 0 -0 -0 -0 0 0 0 0 0 0 0 1 1 0 0 0 0 0 0 0 -0 0 0 0 0 0 0 0 0 -0 0 0
-0 -0 0 -0 -0 0 0 0 0 0 0 0 0 -0 0 -0 0 -0 0 0 0 0 0 0 0 0 0 0 0 0 0 0 0 -0 -0 0 0 0 0 0 0 -0 0
-0 0 -0 -0 -0 0 0 0 0 0 0 0 0 0 -0 -0 -0 -0 -0 0 0 0 0 0 0 0 0 0 0 0 0 0 0 0 -0 -0 -0 0 0 0 -0 -0 -0
Wind_Speed_500mb
18 15 16 15 22 25 28 28 29 36 36 36 35 36 35 34 36 28 25 25 26 26 24 23 22 24 25 29 32 33 35 36 35 34 32 33 33 30 33 37 31 23 25
24 18 20 20 24 28 29 30 32 35 35 36 36 36 35 34 34 35 31 27 26 26 25 25 25 26 28 32 36 39 36 33 34 35 36 34 32 31 30 28 25 25 24
24 21 21 24 23 26 25 28 33 35 35 35 35 35 35 35 34 35 34 31 32 31 31 30 29 28 31 35 36 33 30 31 33 44 40 25 28 28 25 24 25 25 23
25 22 19 23 25 26 26 28 31 34 35 34 33 33 34 35 36 37 38 35 34 33 33 35 35 36 35 35 34 32 27 28 33 37 28 27 24 28 26 26 24 24 24
27 23 25 25 26 27 28 28 28 31 32 32 32 31 34 35 36 40 41 41 39 40 38 37 35 36 28 31 32 27 28 30 42 30 28 26 20 26 27 26 24 21 20
27 21 26 26 26 26 29 28 28 30 28 29 31 30 30 32 33 35 35 37 39 36 37 33 34 29 29 31 33 33 33 41 33 26 25 25 22 24 21 18 18 20 23
26 23 22 24 26 27 28 27 28 27 28 27 25 27 28 29 28 30 35 36 36 38 38 31 33 33 30 31 32 31 31 40 27 23 25 23 20 19 20 22 21 19 17
25 24 21 24 24 27 28 28 26 26 24 25 27 27 26 25 28 31 34 37 39 39 32 34 35 36 33 30 30 29 28 36 23 22 21 18 24 23 25 25 27 26 24
25 22 23 21 24 25 29 27 26 23 23 24 27 26 23 27 28 33 33 34 36 34 33 34 35 34 34 33 30 30 30 38 20 22 21 18 27 28 28 30 29 28 26
23 20 20 26 28 24 25 25 25 26 26 26 26 24 27 30 34 33 30 31 31 30 31 31 34 34 30 30 30 29 31 35 21 23 21 27 30 31 31 30 30 28 26
23 20 17 15 21 28 24 24 25 26 26 28 26 33 34 24 25 26 27 29 28 28 27 28 30 30 31 29 30 32 33 18 19 23 19 30 32 31 30 28 26 26 26
22 21 21 21 18 23 22 22 27 27 21 23 26 30 25 28 29 27 31 29 26 23 24 24 25 32 27 15 20 29 18 20 21 24 24 30 30 29 27 26 27 28 28
22 19 20 23 22 23 23 23 26 20 21 26 27 30 28 22 22 20 18 15 14 20 16 18 20 19 20 18 22 20 20 22 22 22 27 29 28 27 28 30 31 31 31
21 21 23 22 23 27 20 20 21 19 23 23 20 23 22 18 16 18 18 17 19 19 22 23 20 22 21 23 24 23 23 23 23 22 25 26 27 29 30 30 32 33 33
22 21 23 22 22 20 26 22 22 21 24 22 18 16 15 15 16 17 20 15 15 20 20 23 24 26 27 26 25 25 23 24 23 22 19 28 27 28 29 31 31 31 31
23 22 22 22 22 21 21 24 23 24 25 23 17 14 16 14 15 13 14 15 15 17 18 20 24 25 26 25 25 24 24 23 28 25 16 19 25 25 25 24 24 26 26
24 24 24 24 23 22 22 24 22 21 24 20 13 13 13 13 14 17 11 13 13 14 19 19 21 22 21 20 21 22 22 24 23 25 18 13 11 18 17 16 16 17 18
25 27 26 25 26 25 26 26 20 23 21 19 12 9 12 14 18 13 11 12 16 14 14 16 18 19 18 16 17 18 18 18 18 17 10 8 8 8 18 18 21 17 17
27 27 28 27 28 29 25 21 21 23 20 17 12 10 15 15 15 13 12 14 18 14 14 17 17 17 15 14 13 15 15 13 11 6 6 7 9 12 13 20 22 19 19
28 28 29 27 30 29 25 25 21 20 18 16 11 12 16 14 18 15 12 15 18 14 13 17 21 16 12 11 13 12 9 5 2 2 5 7 11 12 16 23 17 19 21
30 30 30 28 31 33 28 25 23 21 19 15 14 20 16 19 19 18 10 10 13 12 13 18 13 11 6 9 12 6 3 1 1 3 7 9 13 12 16 17 14 14 16
34 33 33 32 33 33 29 27 24 24 18 17 18 19 15 15 16 11 12 7 13 10 15 19 12 7 6 9 6 4 5 6 4 3 9 10 9 10 13 18 18 19 13
36 36 35 35 32 33 31 30 26 27 21 18 19 17 17 17 13 12 11 8 7 14 7 10 5 8 4 3 6 3 8 4 9 3 6 7 10 11 11 20 20 9 7
36 36 36 37 36 34 33 31 29 26 22 20 21 19 17 21 16 11 14 12 9 7 6 6 2 7 9 1 3 4 7 11 13 9 4 9 9 9 13 14 13 13 11
37 37 38 39 41 33 35 32 32 28 21 20 22 22 21 22 21 13 15 16 12 5 8 7 1 5 6 7 5 5 6 6 8 8 15 15 11 5 8 10 12 12 17
38 37 37 39 43 42 37 34 35 27 25 24 24 21 18 16 16 17 18 15 14 12 9 8 9 3 2 2 4 6 6 6 8 7 8 9 10 5 7 11 11 15 18
Wind_Direction_500mb
131 129 116 106 106 108 101 98 102 99 100 100 97 96 94 89 92 119 115 111 101 102 100 103 103 101 102 107 113 112 106 105 100 97 92 93 91 86 93 87 72 83 90
131 128 121 112 112 113 107 100 102 101 98 94 92 92 92 94 96 99 100 103 101 100 100 103 99 100 104 104 109 112 108 103 99 86 76 80 88 82 83 96 100 82 82
123 114 116 112 113 115 108 102 101 97 97 93 91 90 89 90 91 96 99 98 96 95 96 88 91 95 107 111 109 109 104 101 97 87 85 86 80 81 82 82 76 75 77
116 113 115 111 113 110 109 104 103 97 96 94 92 93 90 89 88 93 92 92 92 94 91 88 88 88 94 109 104 98 103 101 94 82 86 75 77 79 74 71 74 74 68
122 123 119 115 112 110 112 107 104 102 94 94 90 89 87 88 95 98 91 89 89 92 91 88 86 86 93 97 100 103 99 96 84 82 91 89 84 75 72 68 60 72 81
111 119 114 115 114 113 113 110 106 105 99 97 94 92 92 91 95 102 96 89 90 88 91 82 84 98 97 97 100 99 96 87 85 86 74 85 87 75 75 61 67 69 65
121 114 116 115 116 115 113 112 107 103 98 93 90 93 96 94 98 99 97 93 91 83 86 84 83 84 91 94 96 98 98 99 91 94 88 83 75 68 69 67 68 69 69
120 118 118 118 119 116 117 113 109 104 96 95 96 98 96 96 102 106 109 104 105 107 100 88 81 80 86 92 95 98 98 94 90 96 94 80 75 75 76 75 73 70 67
125 128 120 125 117 111 118 114 111 103 100 100 96 91 91 100 108 112 115 111 106 101 91 86 79 77 78 81 89 92 93 97 89 92 79 74 82 80 77 72 70 68 65
132 126 125 134 125 106 109 109 107 106 106 102 96 95 92 95 102 106 106 108 101 90 88 80 72 71 77 78 85 91 92 78 91 81 85 88 83 79 76 73 71 70 66
138 134 126 112 123 129 119 119 108 107 103 92 96 100 81 95 93 101 119 100 93 87 78 70 63 62 76 83 85 89 78 95 91 91 88 90 88 86 82 78 73 66 57
154 144 146 133 124 122 134 130 117 104 116 112 110 94 97 99 107 103 98 93 84 74 59 56 58 68 78 75 75 68 98 94 93 90 96 94 92 91 87 78 67 58 51
161 156 150 151 142 134 141 141 116 113 112 115 108 102 106 94 92 98 90 81 70 66 74 66 65 87 102 93 102 105 102 97 88 93 93 90 87 82 74 65 60 55 48
163 160 158 156 156 137 146 130 136 136 127 118 119 95 92 94 90 107 107 88 80 82 78 81 91 103 99 98 107 104 102 98 99 95 87 88 86 82 76 70 61 51 46
166 168 162 160 157 146 140 150 145 137 132 141 119 115 107 96 96 104 104 91 85 84 80 85 97 101 104 105 105 102 101 101 95 97 93 93 88 78 69 62 56 50 41
172 172 167 163 165 158 157 152 146 142 151 144 135 127 111 95 109 110 98 86 81 88 94 98 112 107 109 105 101 99 102 99 108 101 99 81 76 69 62 52 48 42 32
171 177 175 168 169 162 159 146 145 154 153 147 134 126 125 107 126 111 97 95 88 85 85 108 110 109 107 105 107 104 99 97 96 96 84 83 52 49 38 25 17 17 8
169 173 171 167 169 163 157 156 154 162 157 159 145 133 137 131 136 99 96 88 97 86 108 121 121 125 114 114 116 113 108 101 94 82 65 57 4 17 348 3 13 356 346
174 172 170 170 171 164 170 165 161 175 158 160 148 143 153 131 133 109 101 95 92 88 111 127 130 128 116 114 116 113 117 109 87 63 26 14 350 354 329 325 355 351 349
179 177 169 169 175 168 177 173 165 168 165 167 159 157 151 145 137 113 108 108 87 90 103 133 132 132 129 123 134 138 130 128 117 339 314 346 330 341 328 327 350 337 344
187 190 187 176 178 178 177 176 174 172 172 167 164 165 150 152 145 137 106 99 86 89 123 132 117 115 125 134 133 139 160 262 287 281 303 316 318 340 345 349 353 358 335
193 193 193 189 188 185 181 180 179 178 176 171 168 172 161 161 158 137 135 109 123 88 98 136 127 123 121 156 176 196 215 216 248 267 321 342 5 357 346 337 323 352 29
196 197 195 192 195 191 189 190 185 184 179 178 180 177 178 174 169 173 168 159 115 109 104 103 98 135 160 101 177 255 267 325 319 267 321 328 348 359 350 333 333 306 18
199 198 198 195 196 193 189 194 193 185 188 194 188 189 191 187 186 181 188 190 174 137 143 75 70 79 97 85 33 32 269 287 312 324 315 335 340 352 338 352 31 33 45
198 198 198 198 199 194 192 187 185 184 196 189 185 197 179 201 198 196 187 194 192 163 221 202 87 95 49 79 62 23 0 326 325 316 324 332 340 9 8 45 43 33 4
199 197 199 199 203 201 200 198 191 205 194 187 183 184 190 198 211 206 202 205 212 216 227 231 227 286 170 63 56 43 15 348 343 348 346 27 62 62 33 21 13 3 360
Wind_Speed_850mb
18 15 16 15 22 25 28 28 29 36 36 36 35 36 35 34 36 28 25 25 26 26 24 23 22 24 25 29 32 33 35 36 35 34 32 33 33 30 33 37 31 23 25
24 18 20 20 24 28 29 30 32 35 35 36 36 36 35 34 34 35 31 27 26 26 25 25 25 26 28 32 36 39 36 33 34 35 36 34 32 31 30 28 25 25 24
24 21 21 24 23 26 25 28 33 35 35 35 35 35 35 35 34 35 34 31 32 31 31 30 29 28 31 35 36 33 30 31 33 44 40 25 28 28 25 24 25 25 23
25 22 19 23 25 26 26 28 31 34 35 34 33 33 34 35 36 37 38 35 34 33 33 35 35 36 35 35 34 32 27 28 33 37 28 27 24 28 26 26 24 24 24
27 23 25 25 26 27 28 28 28 31 32 32 32 31 34 35 36 40 41 41 39 40 38 37 35 36 28 31 32 27 28 30 42 30 28 26 20 26 27 26 24 21 20
27 21 26 26 26 26 29 28 28 30 28 29 31 30 30 32 33 35 35 37 39 36 37 33 34 29 29 31 33 33 33 41 33 26 25 25 22 24 21 18 18 20 23
26 23 22 24 26 27 28 27 28 27 28 27 25 27 28 29 28 30 35 36 36 38 38 31 33 33 30 31 32 31 31 40 27 23 25 23 20 19 20 22 21 19 17
25 24 21 24 24 27 28 28 26 26 24 25 27 27 26 25 28 31 34 37 39 39 32 34 35 36 33 30 30 29 28 36 23 22 21 18 24 23 25 25 27 26 24
25 22 23 21 24 25 29 27 26 23 23 24 27 26 23 27 28 33 33 34 36 34 33 34 35 34 34 33 30 30 30 38 20 22 21 18 27 28 28 30 29 28 26
23 20 20 26 28 24 25 25 25 26 26 26 26 24 27 30 34 33 30 31 31 30 31 31 34 34 30 30 30 29 31 35 21 23 21 27 30 31 31 30 30 28 26
23 20 17 15 21 28 24 24 25 26 26 28 26 33 34 24 25 26 27 29 28 28 27 28 30 30 31 29 30 32 33 18 19 23 19 30 32 31 30 28 26 26 26
22 21 21 21 18 23 22 22 27 27 21 23 26 30 25 28 29 27 31 29 26 23 24 24 25 32 27 15 20 29 18 20 21 24 24 30 30 29 27 26 27 28 28
22 19 20 23 22 23 23 23 26 20 21 26 27 30 28 22 22 20 18 15 14 20 16 18 20 19 20 18 22 20 20 22 22 22 27 29 28 27 28 30 31 31 31
21 21 23 22 23 27 20 20 21 19 23 23 20 23 22 18 16 18 18 17 19 19 22 23 20 22 21 23 24 23 23 23 23 22 25 26 27 29 30 30 32 33 33
22 21 23 22 22 20 26 22 22 21 24 22 18 16 15 15 16 17 20 15 15 20 20 23 24 26 27 26 25 25 23 24 23 22 19 28 27 28 29 31 31 31 31
23 22 22 22 22 21 21 24 23 24 25 23 17 14 16 14 15 13 14 15 15 17 18 20 24 25 26 25 25 24 24 23 28 25 16 19 25 25 25 24 24 26 26
24 24 24 24 23 22 22 24 22 21 24 20 13 13 13 13 14 17 11 13 13 14 19 19 21 22 21 20 21 22 22 24 23 25 18 13 11 18 17 16 16 17 18
25 27 26 25 26 25 26 26 20 23 21 19 12 9 12 14 18 13 11 12 16 14 14 16 18 19 18 16 17 18 18 18 18 17 10 8 8 8 18 18 21 17 17
27 27 28 27 28 29 25 21 21 23 20 17 12 10 15 15 15 13 12 14 18 14 14 17 17 17 15 14 13 15 15 13 11 6 6 7 9 12 13 20 22 19 19
28 28 29 27 30 29 25 25 21 20 18 16 11 12 16 14 18 15 12 15 18 14 13 17 21 16 12 11 13 12 9 5 2 2 5 7 11 12 16 23 17 19 21
30 30 30 28 31 33 28 25 23 21 19 15 14 20 16 19 19 18 10 10 13 12 13 18 13 11 6 9 12 6 3 1 1 3 7 9 13 12 16 17 14 14 16
34 33 33 32 33 33 29 27 24 24 18 17 18 19 15 15 16 11 12 7 13 10 15 19 12 7 6 9 6 4 5 6 4 3 9 10 9 10 13 18 18 19 13
36 36 35 35 32 33 31 30 26 27 21 18 19 17 17 17 13 12 11 8 7 14 7 10 5 8 4 3 6 3 8 4 9 3 6 7 10 11 11 20 20 9 7
36 36 36 37 36 34 33 31 29 26 22 20 21 19 17 21 16 11 14 12 9 7 6 6 2 7 9 1 3 4 7 11 13 9 4 9 9 9 13 14 13 13 11
37 37 38 39 41 33 35 32 32 28 21 20 22 22 21 22 21 13 15 16 12 5 8 7 1 5 6 7 5 5 6 6 8 8 15 15 11 5 8 10 12 12 17
38 37 37 39 43 42 37 34 35 27 25 24 24 21 18 16 16 17 18 15 14 12 9 8 9 3 2 2 4 6 6 6 8 7 8 9 10 5 7 11 11 15 18
Wind_Direction_850mb
131 129 116 106 106 108 101 98 102 99 100 100 97 96 94 89 92 119 115 111 101 102 100 103 103 101 102 107 113 112 106 105 100 97 92 93 91 86 93 87 72 83 90
131 128 121 112 112 113 107 100 102 101 98 94 92 92 92 94 96 99 100 103 101 100 100 103 99 100 104 104 109 112 108 103 99 86 76 80 88 82 83 96 100 82 82
123 114 116 112 113 115 108 102 101 97 97 93 91 90 89 90 91 96 99 98 96 95 96 88 91 95 107 111 109 109 104 101 97 87 85 86 80 81 82 82 76 75 77
116 113 115 111 113 110 109 104 103 97 96 94 92 93 90 89 88 93 92 92 92 94 91 88 88 88 94 109 104 98 103 101 94 82 86 75 77 79 74 71 74 74 68
122 123 119 115 112 110 112 107 104 102 94 94 90 89 87 88 95 98 91 89 89 92 91 88 86 86 93 97 100 103 99 96 84 82 91 89 84 75 72 68 60 72 81
111 119 114 115 114 113 113 110 106 105 99 97 94 92 92 91 95 102 96 89 90 88 91 82 84 98 97 97 100 99 96 87 85 86 74 85 87 75 75 61 67 69 65
121 114 116 115 116 115 113 112 107 103 98 93 90 93 96 94 98 99 97 93 91 83 86 84 83 84 91 94 96 98 98 99 91 94 88 83 75 68 69 67 68 69 69
120 118 118 118 119 116 117 113 109 104 96 95 96 98 96 96 102 106 109 104 105 107 100 88 81 80 86 92 95 98 98 94 90 96 94 80 75 75 76 75 73 70 67
125 128 120 125 117 111 118 114 111 103 100 100 96 91 91 100 108 112 115 111 106 101 91 86 79 77 78 81 89 92 93 97 89 92 79 74 82 80 77 72 70 68 65
132 126 125 134 125 106 109 109 107 106 106 102 96 95 92 95 102 106 106 108 101 90 88 80 72 71 77 78 85 91 92 78 91 81 85 88 83 79 76 73 71 70 66
138 134 126 112 123 129 119 119 108 107 103 92 96 100 81 95 93 101 119 100 93 87 78 70 63 62 76 83 85 89 78 95 91 91 88 90 88 86 82 78 73 66 57
154 144 146 133 124 122 134 130 117 104 116 112 110 94 97 99 107 103 98 93 84 74 59 56 58 68 78 75 75 68 98 94 93 90 96 94 92 91 87 78 67 58 51
161 156 150 151 142 134 141 141 116 113 112 115 108 102 106 94 92 98 90 81 70 66 74 66 65 87 102 93 102 105 102 97 88 93 93 90 87 82 74 65 60 55 48
163 160 158 156 156 137 146 130 136 136 127 118 119 95 92 94 90 107 107 88 80 82 78 81 91 103 99 98 107 104 102 98 99 95 87 88 86 82 76 70 61 51 46
166 168 162 160 157 146 140 150 145 137 132 141 119 115 107 96 96 104 104 91 85 84 80 85 97 101 104 105 105 102 101 101 95 97 93 93 88 78 69 62 56 50 41
172 172 167 163 165 158 157 152 146 142 151 144 135 127 111 95 109 110 98 86 81 88 94 98 112 107 109 105 101 99 102 99 108 101 99 81 76 69 62 52 48 42 32
171 177 175 168 169 162 159 146 145 154 153 147 134 126 125 107 126 111 97 95 88 85 85 108 110 109 107 105 107 104 99 97 96 96 84 83 52 49 38 25 17 17 8
169 173 171 167 169 163 157 156 154 162 157 159 145 133 137 131 136 99 96 88 97 86 108 121 121 125 114 114 116 113 108 101 94 82 65 57 4 17 348 3 13 356 346
174 172 170 170 171 164 170 165 161 175 158 160 148 143 153 131 133 109 101 95 92 88 111 127 130 128 116 114 116 113 117 109 87 63 26 14 350 354 329 325 355 351 349
179 177 169 169 175 168 177 173 165 168 165 167 159 157 151 145 137 113 108 108 87 90 103 133 132 132 129 123 134 138 130 128 117 339 314 346 330 341 328 327 350 337 344
187 190 187 176 178 178 177 176 174 172 172 167 164 165 150 152 145 137 106 99 86 89 123 132 117 115 125 134 133 139 160 262 287 281 303 316 318 340 345 349 353 358 335
193 193 193 189 188 185 181 180 179 178 176 171 168 172 161 161 158 137 135 109 123 88 98 136 127 123 121 156 176 196 215 216 248 267 321 342 5 357 346 337 323 352 29
196 197 195 192 195 191 189 190 185 184 179 178 180 177 178 174 169 173 168 159 115 109 104 103 98 135 160 101 177 255 267 325 319 267 321 328 348 359 350 333 333 306 18
199 198 198 195 196 193 189 194 193 185 188 194 188 189 191 187 186 181 188 190 174 137 143 75 70 79 97 85 33 32 269 287 312 324 315 335 340 352 338 352 31 33 45
198 198 198 198 199 194 192 187 185 184 196 189 185 197 179 201 198 196 187 194 192 163 221 202 87 95 49 79 62 23 0 326 325 316 324 332 340 9 8 45 43 33 4
199 197 199 199 203 201 200 198 191 205 194 187 183 184 190 198 211 206 202 205 212 216 227 231 227 286 170 63 56 43 15 348 343 348 346 27 62 62 33 21 13 3 360